This demonstration page uses our WeatherBlox Daily Observations layout. Learn more.

Left ArrowRight Arrow

36.17497, -115.13722

Hourly Observations for February 19, 2019

Temp ( °F °C ) Dew Point ( °F °C ) Humidity (%) Winds ( mph kmh ) Pressure ( in mb ) Visibility ( mi km ) Precip ( " mm )
12:53 am 00:53 Clear 40 4.4 15 -9.4 36 36 NNW 17 28 30.09 1019 10 16 0.00 0.00
1:53 am 01:53 Clear 39 3.9 15 -9.4 38 38 NNW 14 22 30.09 1019 10 16 0.00 0.00
2:53 am 02:53 Clear 39 3.9 13 -10.6 34 34 NNW 22 35 30.07 1018 10 16 0.00 0.00
3:53 am 03:53 Clear 38 3.3 11 -11.7 33 33 NNW 16 26 30.09 1019 10 16 0.00 0.00
4:53 am 04:53 Clear 38 3.3 10 -12.2 31 31 NNW 17 28 30.10 1019 10 16 0.00 0.00
5:53 am 05:53 Clear 37 2.8 11 -11.7 34 34 NNW 17 28 30.12 1020 10 16 0.00 0.00
6:53 am 06:53 Sunny 37 2.8 11 -11.7 34 34 NW 17 28 30.14 1021 10 16 0.00 0.00
7:53 am 07:53 Sunny 38 3.3 10 -12.2 31 31 NW 20 31 30.15 1021 10 16 0.00 0.00
8:53 am 08:53 Sunny 40 4.4 8 -13.3 27 27 NNW 22 35 30.16 1021 10 16 0.00 0.00
9:53 am 09:53 Sunny 41 5 8 -13.3 25 25 NNW 21 33 30.16 1022 10 16 0.00 0.00
10:53 am 10:53 Sunny 43 6.1 10 -12.2 26 26 NNW 23 37 30.16 1021 10 16 0.00 0.00
11:53 am 11:53 Sunny 44 6.7 10 -12.2 25 25 N 16 26 30.15 1021 10 16 0.00 0.00
12:53 pm 12:53 Sunny 44 6.7 9 -12.8 24 24 N 20 31 30.13 1020 10 16 0.00 0.00
1:53 pm 13:53 Sunny 46 7.8 10 -12.2 23 23 NNW 22 35 30.10 1019 10 16 0.00 0.00
2:53 pm 14:53 Sunny 46 7.8 9 -12.8 22 22 NNW 21 33 30.09 1019 10 16 0.00 0.00
3:53 pm 15:53 Sunny 46 7.8 9 -12.8 22 22 N 17 28 30.08 1019 10 16 0.00 0.00
4:53 pm 16:53 Sunny 45 7.2 7 -13.9 21 21 NNW 15 24 30.07 1018 10 16 0.00 0.00
5:53 pm 17:53 Clear 43 6.1 9 -12.8 25 25 NNW 14 22 30.08 1019 10 16 0.00 0.00
6:53 pm 18:53 Clear 43 6.1 9 -12.8 25 25 NNW 13 20 30.09 1019 10 16 0.00 0.00
7:53 pm 19:53 Clear 41 5 13 -10.6 32 32 NNW 9 15 30.09 1019 10 16 0.00 0.00
8:53 pm 20:53 Clear 39 3.9 15 -9.4 38 38 NW 6 9 30.09 1019 10 16 0.00 0.00
9:53 pm 21:53 Clear 37 2.8 17 -8.3 44 44 SSW 5 7 30.08 1019 10 16 0.00 0.00
10:53 pm 22:53 Clear 37 2.8 17 -8.3 44 44 Calm 30.06 1018 10 16 0.00 0.00
11:53 pm 23:53 Clear 34 1.1 19 -7.2 54 54 N 3 6 30.06 1018 10 16 0.00 0.00

Powered by AerisWeather